www.pogodaiklimat.ru

Погода и климат >> Архив погоды >> Гренландия >> Tasiilaq


ПОГОДА в Tasiilaq

  • Прогноз погоды в Tasiilaq
  • Монитор погоды в Tasiilaq

АРХИВ ПОГОДЫ в Tasiilaq

Время (UTC), дата Ветер
(напр.,м/с)
 
Видим.   Явления Облачность Т
(С)
Тd
(С)
f
(%)
Тe
(С)
Тes
(С)
Комфортность P
(гПа)
Po
(гПа)
Тmin
(С)
Tmax
(С)
R
(мм)
R24
(мм)
S
(см)
10 16.05 СВ 1 50 км в посл. час дождь 10/10 720 м
[]
+4.4 +3.8 96 +4 +4 1017.5 1010.5 0.2
11 16.05 ЮЗ 1 50 км 10/10 700 м
[]
+5.3 +4.3 93 +5 +5 1017.5 1010.6
12 16.05 СЗ 1 35 км {дождь, морось} 10/10 900 м
[]
+6.4 +4.8 89 +5 +5 1017.4 1010.4 0.2
13 16.05 СВ 2 50 км 9/9 1020 м
[]
+7.4 +5.0 85 +6 +7 1017.1 1010.2
14 16.05 СВ 1 50 км 9/9 1500 м
[]
+8.5 +4.4 75 +8 +9 1016.8 1009.9
15 16.05 ЮВ 3 30 км 9/9 1500 м
[]
+6.8 +4.2 83 +4 +5 1016.7 1009.8
16 16.05 ЮВ 4 35 км 9/9 1500 м
[]
+4.6 +3.0 89 +1 +1 1017.0 1010.1
17 16.05 Ю 4 50 км 10/10 90 м
[]
+5.7 +3.4 85 +2 +2 1017.2 1010.2
18 16.05 ЮВ 3 45 км слаб. дождь {осадки} 9/9 420 м
[]
+3.7 +1.5 86 0 +1 1017.5 1010.5 +2.8 +8.6 0.0
19 16.05 17 км слаб. ливневой дождь 10/10 1230 м
[]
+4.0 +2.1 87 1017.4 1010.4
20 16.05 ЮВ 2 13 км морось {ливн. осадки} 9/9 1200 м
[]
+3.0 +2.0 93 0 +1 1017.1 1010.1 0.3
21 16.05 ЮВ 4 20 км морось {ливн. осадки, дождь} 9/9 60 м
[]
+2.0 +1.5 96 -3 -3 1017.4 1010.3 0.5
22 16.05 ЮВ 2 23 км слаб. ливневой дождь {морось} 9/9 180 м
[]
+2.0 +1.1 94 -1 -1 1018.0 1010.9
23 16.05 СЗ 1 40 км морось {ливн. осадки} 10/10 150 м
[]
+2.0 +1.4 96 0 0 1018.4 1011.4 0.1
00 17.05 штиль 0 21 км слаб. дождь 10/10 300 м
[]
+2.4 +1.8 96 +1 +1 1018.9 1011.9 0.2
01 17.05 З 4 13 км слаб. дождь 9/9 400 м
[]
+2.9 +1.9 93 -2 -2 1018.9 1011.9 0.9
02 17.05 ЮВ 2 11 км слаб. дождь {морось} 10/10 870 м
[]
+2.0 +1.4 96 -2 -2 1019.3 1012.2 0.6
03 17.05 Ю 2 8000 м слаб. дождь {морось} 10/10 30 м
[]
+1.8 +1.5 98 -2 -2 1019.6 1012.6 2
04 17.05 С 1 4000 м слаб. дождь 9/9 150 м
[]
+1.9 +1.5 97 +1 +1 1020.1 1013.0 0.9
05 17.05 ЮВ 2 7000 м морось {дождь} 10/10 30 м
[]
+1.8 +1.4 97 -1 -1 1020.4 1013.3 0.5
06 17.05 штиль 0 500 м слаб. ливневой дождь 10/10 120 м
[]
+1.7 +1.4 98 0 0 1020.7 1013.7 +1.4 +4.2 2
07 17.05 штиль 0 900 м слаб. ливневой дождь 10/10 60 м
[]
+1.9 +1.7 99 +1 +1 1020.9 1013.8 0.2
08 17.05 штиль 0 28 км слаб. ливневой дождь 10/10 660 м
[]
+2.2 +2.0 99 +1 +1 1021.2 1014.1
09 17.05 С 1 6000 м дождь {ливн. осадки} 9/9 600 м
[]
+2.2 +1.9 98 +2 +2 1021.5 1014.5 0.7
10 17.05 З 1 40 км слаб. дождь {морось} 10/10 660 м
[]
+4.3 +2.8 90 +3 +3 1021.7 1014.7 0.5
11 17.05 Ю 2 30 км морось {дождь} 10/10 720 м
[]
+3.8 +2.7 93 +1 +1 1021.9 1014.9 0.2
12 17.05 СВ 1 19 км слаб. дождь 10/10 800 м
[]
+4.3 +3.1 92 +3 +3 1022.0 1015.0 0.8
13 17.05 Ю 1 40 км морось {дождь} 10/10 800 м
[]
+5.0 +3.8 92 +4 +4 1022.3 1015.3 0.1
14 17.05 Ю 2 18 км морось {дождь} 10/10 800 м
[]
+3.8 +3.4 97 +1 +1 1022.5 1015.4 0.2
15 17.05 СВ 1 50 км слаб. ливневой дождь 10/10 930 м
[]
+4.9 +3.8 93 +5 +5 1022.3 1015.3 0.3
16 17.05 ЮВ 3 35 км слаб. ливневой дождь 10/10 900 м
[]
+3.6 +2.8 94 -1 -1 1022.3 1015.2
17 17.05 Ю 2 40 км слаб. ливневой дождь 10/10 870 м
[]
+3.6 +3.0 96 +1 +1 1022.3 1015.3
18 17.05 СЗ 1 30 км слаб. ливневой дождь 9/9 960 м
[]
+4.5 +3.8 95 +3 +4 1022.1 1015.1 +1.7 +6.1 0.1
20 17.05 СЗ 1 50 км 9/9 1500 м
[]
+4.9 +3.9 93 +3 +4 1021.7 1014.7
21 17.05 ЮВ 3 40 км {ливн. осадки} 9/9 1260 м
[]
+3.8 +3.1 95 -0 -0 1021.7 1014.6 0.0
22 17.05 ЮЗ 1 45 км 9/0 2000 м
[]
+3.3 +2.9 97 +2 +2 1021.8 1014.8
23 17.05 штиль 0 50 км 9/9 60 м
[]
+3.1 +2.7 97 +2 +2 1021.6 1014.6
00 18.05 Ю 2 1600 м дымка {ливн. осадки} 10/10 60 м
[]
+2.5 +2.4 99 -1 -1 1021.5 1014.5
01 18.05 ЮЗ 1 3500 м дымка 10/10 60 м
[]
+1.9 +1.7 99 -0 -0 1021.6 1014.6
02 18.05 СЗ 2 500 м туман {дымка} 10/10 60 м
[]
+3.1 +2.9 99 -0 -0 1020.9 1013.9
03 18.05 штиль 0 22 км морось 10/10 60 м
[]
+3.3 +3.1 99 +2 +2 1020.4 1013.3 0.1
04 18.05 З 1 10 км слаб. дождь {морось} 9/9 60 м
[]
+3.1 +2.9 99 +3 +3 1019.7 1012.7 0.4
05 18.05 штиль 0 18 км слаб. дождь 10/10 30 м
[]
+3.0 +2.8 99 +2 +2 1019.0 1012.0 0.6
06 18.05 ЮВ 4 700 м слаб. дождь {морось} 10/10 150 м
[]
+1.1 +0.9 99 -4 -4 1019.1 1012.0 +0.5 +7.5 2
07 18.05 ЮВ 2 3100 м слаб. дождь со снегом 10/10 30 м
[]
+0.7 +0.5 99 -3 -3 1020.0 1012.9 2
08 18.05 Ю 1 3300 м слаб. снег 10/10 120 м
[]
+0.7 +0.2 96 -1 -1 1019.9 1012.8 1
09 18.05 С 1 1600 м слаб. дождь 9/9 120 м
[]
+0.5 +0.1 97 -0 0 1020.0 1012.9 4
10 18.05 В 1 22 км слаб. дождь {морось} 10/10 800 м
[]
+1.5 +1.2 98 +1 +1 1020.0 1012.9 0.2
11 18.05 Ю 3 45 км слаб. дождь {морось} 10/10 840 м
[]
+2.0 +0.9 92 -2 -2 1019.9 1012.9 0.2
12 18.05 ЮВ 4 17 км морось {снег, дождь} 10/10 800 м
[]
+1.8 +1.1 95 -3 -3 1020.5 1013.4 0.4
13 18.05 В 2 13 км слаб. дождь {морось} 10/10 240 м
[]
+2.2 +0.8 90 -1 -1 1020.7 1013.6 0.5
14 18.05 ЮВ 1 7000 м дождь 10/10 400 м
[]
+1.7 +0.8 94 -0 -0 1020.9 1013.9 1
15 18.05 С 1 16 км дождь со снегом 10/10 600 м
[]
+1.6 +0.9 95 +1 +1 1021.1 1014.1 3
16 18.05 С 1 5000 м слаб. дождь 9/9 30 м
[]
+1.2 +0.7 96 +1 +2 1021.2 1014.1 0.9
17 18.05 ЮВ 1 20 км слаб. дождь 9/9 60 м
[]
+2.1 +1.6 96 0 +1 1021.4 1014.4 0.8
18 18.05 ЮВ 3 50 км морось {снег, дождь} 10/10 800 м
[]
+4.2 +1.3 81 +1 +1 1021.4 1014.4 +0.4 +4.6 2
19 18.05 В 5 50 км в посл. час дождь {морось} 10/10 900 м
[]
+5.4 +0.7 72 +1 +1 1021.6 1014.6
20 18.05 ЮВ 3 50 км 10/10 960 м
[]
+5.0 +0.4 72 +2 +2 1021.9 1014.9
21 18.05 ЮВ 4
{10}
50 км {дождь, морось} 10/10 1020 м
[]
+4.5 +0.4 75 0 0 1022.4 1015.4 0.0
22 18.05 Ю 3 50 км 10/10 1170 м
[]
+4.3 +0.3 75 +1 +1 1022.6 1015.6
23 18.05 Ю 3 50 км 10/10 1350 м
[]
+3.4 +0.2 80 -1 -1 1023.2 1016.1
00 19.05 Ю 3
{10}
50 км {дождь, морось} 10/10 1140 м
[]
+3.3 +0.2 80 -0 -0 1023.4 1016.3
01 19.05 Ю 2 17 км слаб. дождь {морось} 10/10 700 м
[]
+2.4 +0.4 87 -1 -1 1023.7 1016.6 0.4
02 19.05 Ю 3 11 км слаб. дождь 10/10 210 м
[]
+1.1 +0.1 93 -3 -3 1023.8 1016.7 1
03 19.05 Ю 2 2700 м слаб. снег {дождь} 10/10 210 м
[]
+0.7 0.0 95 -2 -2 1023.8 1016.7 2
04 19.05 СВ 1 4000 м слаб. дождь со снегом 9/9 30 м
[]
+0.3 -0.1 97 -0 -0 1023.4 1016.3 0.9
05 19.05 штиль 0 2400 м дождь {снег} 10/10 450 м
[]
+0.3 0.0 98 -1 -1 1023.3 1016.2 0.9
06 19.05 ЮЗ 1 700 м слаб. снег {дождь} 9/9 30 м
[]
0.0 -0.3 98 -1 -1 1023.4 1016.3 0.0 +5.8 3
07 19.05 ЮВ 2 1300 м слаб. снег 10/10 240 м
[]
-0.1 -0.4 98 -3 -3 1023.5 1016.4 1
08 19.05 С 1 900 м слаб. снег 10/10 150 м
[]
-0.1 -0.4 98 -1 -1 1023.7 1016.6 1
09 19.05 З 1 1400 м слаб. снег ?/? +0.2 -0.1 98 -1 -1 1023.8 1016.7 4
10 19.05 З 1 1700 м слаб. снег 10/10 270 м
[]
+0.3 0.0 98 -2 -2 1024.0 1016.9 2
11 19.05 штиль 0 1200 м слаб. дождь со снегом 10/10 300 м
[]
+0.6 +0.1 96 -1 -1 1024.3 1017.2 1
12 19.05 СЗ 1 900 м слаб. дождь со снегом 10/10 450 м
[]
+1.0 +0.2 94 0 0 1024.7 1017.6 3
13 19.05 З 2 12 км слаб. дождь со снегом 10/10 480 м
[]
+0.7 -0.1 94 -2 -2 1024.9 1017.8 0.3
14 19.05 С 1 15 км слаб. дождь 9/9 800 м
[]
+1.0 -0.2 92 -1 0 1024.9 1017.8
15 19.05 Ю 2 30 км в посл. час зёрна {дождь} 10/10 90 м
[]
+1.2 +0.3 94 -2 -2 1025.1 1018.0 0.3
16 19.05 СВ 1 35 км 10/10 90 м
[]
+1.8 +0.7 92 +1 +1 1025.1 1018.0
17 19.05 ЮВ 2 16 км слаб. дождь {морось} 10/10 450 м
[]
+1.6 +0.7 94 -1 -1 1025.3 1018.2
18 19.05 штиль 0 13 км слаб. дождь 9/9 30 м
[]
+1.3 +0.6 95 0 +1 1025.2 1018.1 -0.2 +2.0 0.1
19 19.05 ЮВ 1 4200 м дождь со снегом 9/9 30 м
[]
+0.9 +0.3 96 -1 -1 1025.3 1018.2 0.8
20 19.05 СЗ 1 2300 м слаб. дождь со снегом 10/10 180 м
[]
+0.4 -0.1 96 -2 -2 1025.3 1018.1 1
21 19.05 штиль 0 2200 м слаб. дождь со снегом ?/? +0.4 +0.1 98 -1 -1 1025.3 1018.2 2
22 19.05 В 1 2500 м слаб. дождь 10/10 30 м
[]
+0.4 +0.1 98 -2 -2 1024.9 1017.8 0.8
23 19.05 СЗ 2 10 км слаб. дождь {морось} 10/10 360 м
[]
+0.5 +0.1 97 -3 -3 1025.1 1017.9 0.3
00 20.05 штиль 0 4200 м слаб. дождь со снегом 10/10 480 м
[]
+0.2 0.0 99 -1 -1 1025.0 1017.8 2
01 20.05 штиль 0 700 м слаб. снег 10/10 270 м
[]
0.0 -0.2 99 -1 -1 1024.6 1017.5 1
02 20.05 В 1 1500 м слаб. снег 9/9 150 м
[]
+0.1 -0.1 99 -1 -1 1024.2 1017.1 1
03 20.05 СЗ 1 900 м слаб. снег ?/? -0.2 -0.4 99 -1 -1 1024.3 1017.1 4
04 20.05 З 1 1200 м слаб. снег 10/10 180 м
[]
-0.1 -0.3 99 -2 -2 1024.0 1016.9 2
05 20.05 штиль 0 1100 м слаб. снег 10/10 330 м
[]
0.0 -0.2 99 -1 -1 1023.9 1016.8 1
06 20.05 штиль 0 15 км слаб. дождь со снегом 10/10 360 м
[]
+0.1 -0.1 99 -1 -1 1024.1 1016.9 -0.2 +1.4 3
07 20.05 З 1 5000 м слаб. ледяной дождь 10/10 750 м
[]
+0.1 -0.1 99 -2 -2 1024.3 1017.2 0.3
08 20.05 штиль 0 800 м ливневой дождь {снег} 10/10 210 м
[]
+0.4 +0.1 98 -1 -1 1024.4 1017.3 0.4
09 20.05 штиль 0 600 м дождь со снегом {ливн. осадки} ?/? +0.3 -0.1 97 -1 -1 1024.6 1017.5 1
10 20.05 СВ 1 800 м слаб. дождь 9/9 60 м
[]
+0.5 0.0 96 -0 0 1024.6 1017.5 0.5
11 20.05 ЮВ 2 1000 м слаб. ливневой снег {дождь} 10/10 60 м
[]
+0.2 -0.3 96 -4 -4 1024.8 1017.7
12 20.05 В 1 1300 м слаб. ледяной дождь 10/10 60 м
[]
+0.5 0.0 96 -2 -2 1024.9 1017.7 0.5
13 20.05 Ю 2 4000 м слаб. снег 10/10 60 м
[]
+0.6 0.0 96 -3 -3 1025.0 1017.8 0.4
14 20.05 штиль 0 12 км в посл. час снег 9/9 30 м
[]
+1.7 +0.4 91 +1 +2 1025.2 1018.1
15 20.05 В 2 24 км {снег, дымка} 10/10 30 м
[]
+1.0 0.0 93 -2 -2 1025.2 1018.1 0.4
16 20.05 С 1 40 км 10/10 300 м
[]
+1.9 +0.3 89 +1 +1 1025.2 1018.1
17 20.05 ЮВ 2 45 км 9/9 330 м
[]
+1.9 0.0 87 -1 0 1025.2 1018.1
18 20.05 Ю 1 50 км {снег, дымка} 9/9 400 м
[]
+2.2 +0.5 89 +2 +3 1025.4 1018.3 0.0 +2.3
19 20.05 СЗ 1 50 км 10/10 450 м
[]
+1.8 +0.2 89 -0 -0 1025.6 1018.5
20 20.05 ЮВ 1 50 км 10/10 450 м
[]
+2.1 -0.6 82 0 0 1025.7 1018.6
21 20.05 СЗ 3 50 км 9/9 270 м
[]
+2.1 +0.2 87 -2 -2 1025.7 1018.6
22 20.05 З 3 50 км 9/9 960 м
[]
+2.0 +0.1 87 -2 -2 1025.4 1018.3
23 20.05 СЗ 2 50 км 9/0 2000 м
[]
+2.0 -0.1 86 -1 -1 1025.6 1018.5
00 21.05 СЗ 1 50 км 9/0
[]
+1.8 +0.2 89 +1 +1 1025.7 1018.6
01 21.05 ЮЗ 1 50 км 10/0 2000 м
[]
+2.6 -0.6 79 +1 +1 1025.7 1018.6
02 21.05 штиль 0 50 км 10/0 2000 м
[]
+1.7 0.0 88 +1 +1 1026.0 1018.8
03 21.05 штиль 0 50 км 10/0 2000 м
[]
+1.9 -0.2 86 +1 +1 1025.9 1018.8
04 21.05 ЮЗ 1 50 км 10/10 800 м
[]
+1.7 -0.1 88 +1 +1 1025.9 1018.8
05 21.05 Ю 3 50 км 10/10 570 м
[]
+1.8 -1.4 79 -2 -2 1026.0 1018.9
06 21.05 ЮВ 2 50 км слаб. ливневой снег 9/9 540 м
[]
+1.4 -1.4 82 -1 -1 1026.3 1019.2 +1.2 +2.7 0.0
07 21.05 ЮВ 2 50 км {ливн. осадки} 9/9 540 м
[]
+1.6 -1.3 81 -2 -2 1026.5 1019.4
08 21.05 СВ 1 10 км слаб. дождь со снегом {осадки} 10/10 570 м
[]
+1.3 -0.6 87 +1 +1 1026.9 1019.8
09 21.05 З 2 50 км слаб. снег 9/9 1380 м
[]
+1.4 -0.3 88 -2 -2 1027.0 1019.9 0.2
10 21.05 ЮВ 2 50 км {снег} 9/9 1500 м
[]
+1.2 -0.5 88 -2 -1 1027.4 1020.2
11 21.05 Ю 1 50 км 9/9 1080 м
[]
+2.4 -0.1 84 +2 +3 1027.7 1020.6
12 21.05 СЗ 1 50 км слаб. ливневой дождь 9/9 1080 м
[]
+2.2 0.0 85 +1 +2 1028.1 1021.0 0.0
15 21.05 ЮВ 3 50 км 10/10 870 м
[]
+3.2 -0.3 78 -0 -0 1028.1 1021.0

 

Местоположение метеостанции Tasiilaq (Гренландия): широта 65.60 долгота -37.63 высота над уровнем моря 52 м.

В архиве по умолчанию представлена погода в Tasiilaq за последнюю неделю. Архивные данные за месяц целиком и за предыдущие месяцы, начиная с января 2011 года, Вы можете получить, выбрав интересующий диапазон дат из раскрывающегося списка и нажав кнопку "Ввод!".


*Определитесь, кто Вы:
робот инопланетянин человек

Внимание! Время в таблицах - всемирное. Для получения местного времени необходимо прибавить поправку, которая равна -3 ч.

Смотрите также архив погоды в соседних городах и на ближайших метеорологических станциях:

Погода в Kulusuk (Гренландия) (23 км)
Погода в Ikermiit (Гренландия) (154 км)
Погода в Aputiteq Ads (Гренландия) (337 км)
Погода в Ikermiuarsuk (Гренландия) (462 км)
Погода в Kangerlussuaq (Гренландия) (604 км)
Погода в Narsarsuaq (Гренландия) (630 км)
Погода в Болюнгарвик Шелфви (Исландия) (655 км)
Погода в Болунгарвике (Исландия) (655 км)
Погода в Prins Christian Sun (Гренландия) (678 км)
Погода в Mittarfik Nuuk (Гренландия) (679 км)

Пояснения к столбцам:

Ветер - указаны скорость ветра в м/с - средняя за 10 мин, порывы в срок и между сроками (в фигурных скобках) и направление, откуда дует ветер: С - северный, СВ - северо-восточный, В - восточный, ЮВ - юго-восточный, Ю - южный, ЮЗ - юго-западный, З - западный, СЗ - северо-западный.
Видимость - горизонтальная дальность видимости в метрах или километрах. При видимости от 1 до 10 км при отсутствии осадков обычно наблюдается дымка, при ухудшении видимости до 1 км и менее - туман. В сухую погоду видимость может ухудшаться дымом, пылью или мглою.
Явления - указаны атмосферные явления, наблюдавшиеся в срок или в последний час перед сроком; фигурными скобками обозначены явления, наблюдавшиеся между сроками (за 1-3 часа до срока); квадратными скобками обозначены град или гололедные отложения с указанием их диаметра в мм.
Облачность - указаны через наклонную черту общая и нижняя облачность в баллах и высота нижней границы облаков в метрах; квадратными скобками обозначены формы облаков: Ci - перистые, Cs - перисто-слоистые, Cc - перисто-кучевые, Ac - высококучевые, As - высокослоистые, Sc - слоисто-кучевые, Ns - слоисто-дождевые, Cu - кучевые, Cb - кучево-дождевые. Подробнее классификацию облаков см. в Атласе облаков (PDF).
T - Температура воздуха - температура, измеренная на высоте 2 м над землей.
Td - Температура точки росы - температура, при понижении до которой содержащийся в воздухе водяной пар достигнет насыщения.
f - Относительная влажность воздуха - влажноcть воздуха, измеренная на высоте 2 м над землей.
Te - Эффективная температура - температура, которую ощущает одетый по сезону человек в тени. Характеристика душности погоды. При расчете учитывается влияние влажности воздуха и скорости ветра на теплоощущения человека.
Tes - Эффективная температура на солнце - температура, которую ощущает человек, с поправкой на солнечный нагрев. Характеристика знойности погоды. Зависит от высоты солнца над горизонтом, облачности и скорости ветра. Ночью, в пасмурную погоду, а также при ветре 12 м/с и более поправка равна нулю.
P - Атмосферное давление - приведенное к уровню моря атмосферное давление.
Po - Атмосферное давление - измеренное на уровне метеостанции атмосферное давление.
Tmin - Минимальная температура - минимум температуры воздуха на высоте 2 м над землей.
Tmax - Максимальная температура - максимум температуры воздуха на высоте 2 м над землей.
R - Количество осадков - Количество выпавших осадков за период времени, мм. При наведении курсора мыши на число - период времени, за который выпало указанное количество осадков.
R24 - Количество осадков - Количество выпавших осадков за 24 часа, мм.
S - Снежный покров - Высота снежного покрова, см. При наведении курсора мыши на число - состояние снежного покрова и степень покрытия местности в баллах.